This demonstration page uses our WeatherBlox Daily Observations layout. Learn more.

Left ArrowRight Arrow

34.02893, -84.19858

Hourly Observations for November 22, 2019

Temp ( °F °C ) Dew Point ( °F °C ) Humidity (%) Winds ( mph kmh ) Pressure ( in mb ) Visibility ( mi km ) Precip ( " mm )
12:53 am 00:53 Clear 48 8.9 43 6.1 83 83 Calm 30.13 1020 10 16 0.00 0.00
1:53 am 01:53 Partly Cloudy 49 9.4 43 6.1 80 80 Calm 30.14 1021 10 16 0.00 0.00
2:53 am 02:53 Partly Cloudy 48 8.9 43 6.1 83 83 Calm 30.12 1020 10 16 0.00 0.00
3:53 am 03:53 Mostly Clear 46 7.8 42 5.6 86 86 Calm 30.11 1020 10 16 0.00 0.00
4:53 am 04:53 Clear 43 6.1 41 5 93 93 Calm 30.11 1020 10 16 0.00 0.00
5:53 am 05:53 Partly Cloudy 45 7.2 42 5.6 90 90 Calm 30.11 1020 10 16 0.00 0.00
6:53 am 06:53 Mostly Cloudy 46 7.8 43 6.1 89 89 S 3 6 30.12 1020 10 16 0.00 0.00
7:53 am 07:53 Sunny 50 10 44 6.7 80 80 SSW 5 7 30.12 1020 10 16 0.00 0.00
8:53 am 08:53 Mostly Cloudy 53 11.7 45 7.2 74 74 WSW 6 9 30.13 1020 9 14 0.00 0.00
9:53 am 09:53 Partly Cloudy 57 13.9 47 8.3 69 69 SW 3 6 30.12 1020 10 16 0.00 0.00
10:53 am 10:53 Mostly Sunny 60 15.6 47 8.3 62 62 SSW 9 15 30.09 1019 10 16 0.00 0.00
11:53 am 11:53 Sunny 64 17.8 49 9.4 58 58 SW 10 17 30.07 1018 10 16 0.00 0.00
12:53 pm 12:53 Mostly Cloudy 65 18.3 52 11.1 63 63 WSW 8 13 30.04 1017 10 16 0.00 0.00
1:53 pm 13:53 Mostly Cloudy 64 17.8 52 11.1 65 65 SW 7 11 30.03 1017 10 16 0.00 0.00
2:53 pm 14:53 Cloudy 64 17.8 54 12.2 70 70 WSW 7 11 30.01 1016 10 16 0.00 0.00
4:53 pm 16:53 Cloudy with Light Rain 63 17.2 54 12.2 73 73 S 7 11 30.01 1016 9 14 0.00 0.00
5:53 pm 17:53 Mostly Cloudy 61 16.1 56 13.3 84 84 SSW 3 6 30.01 1016 10 16 0.00 0.00
6:53 pm 18:53 Cloudy 61 16.1 56 13.3 84 84 SSW 5 7 30.02 1017 10 16 0.00 0.00
7:53 pm 19:53 Cloudy 60 15.6 57 13.9 90 90 SSW 6 9 30.01 1016 10 16 0.01 0.25
8:53 pm 20:53 Cloudy 60 15.6 57 13.9 90 90 SSW 6 9 30.01 1016 10 16 0.00 0.00
9:53 pm 21:53 Cloudy 60 15.6 57 13.9 90 90 SW 5 7 30.01 1016 10 16 0.00 0.00
10:53 pm 22:53 Cloudy 60 15.6 57 13.9 90 90 SW 3 6 30.00 1016 10 16 0.00 0.00
11:04 pm 23:04 Cloudy 59 15 57 13.9 93 93 Calm 29.99 1016 10 16 0.00 0.00
11:53 pm 23:53 Cloudy 59 15 57 13.9 93 93 Calm 29.98 1015 8 13 0.00 0.00

Powered by AerisWeather